Theta_e
268 268 267 267 267 267 267 266 267 267 267 266 266 266 266 266 266 266 265 265 265 265 265 265 265 265 264 264 264 264 264 264 263 263 263 263 263 263 263 263 263 263 263 263 262 262 262 262 261 261 261 261 261 260 260 260 259 259 258 257 257 256 256 256 255 255 258 259 258 259 260 259 261 261 260 260 261 260 260 260 260 260 260 261 261
268 267 267 267 267 267 267 267 267 267 266 266 266 266 266 266 265 265 266 265 265 265 265 265 264 264 264 264 264 264 264 264 264 263 263 263 263 263 263 263 263 263 263 263 263 262 262 262 262 262 261 261 261 260 260 260 259 259 259 258 257 257 256 256 256 255 256 258 258 259 259 259 260 261 260 260 260 260 260 260 260 260 260 261 261
267 267 267 266 266 267 266 266 267 267 266 266 266 266 266 265 265 265 266 265 265 265 265 264 264 264 264 264 264 264 264 264 264 264 263 263 263 263 263 262 262 263 263 263 263 262 262 262 262 261 261 261 261 261 260 260 259 259 259 258 257 257 257 256 256 256 256 257 257 258 259 259 259 260 260 260 260 259 259 260 260 261 261 261 260
267 267 266 266 266 266 266 266 266 266 266 266 266 266 265 265 265 265 266 265 265 265 265 264 264 264 264 264 264 264 264 264 264 264 263 263 263 263 263 262 262 262 262 262 262 262 262 262 261 261 261 261 261 261 260 260 260 259 259 258 258 257 257 257 256 256 256 256 257 257 258 258 259 259 259 259 259 260 259 260 260 260 261 261 260
266 266 266 266 266 266 266 266 266 266 266 266 266 265 265 265 265 265 265 265 265 265 265 264 264 264 264 264 264 264 264 264 264 264 263 263 263 263 263 262 262 262 262 262 262 262 262 261 261 261 261 261 261 261 260 260 259 259 258 258 258 257 257 257 257 257 256 256 256 257 257 258 258 259 259 259 259 259 259 260 260 260 261 260 260
266 266 266 266 266 266 266 266 266 265 265 265 265 265 265 265 265 265 265 265 265 265 265 264 264 264 264 264 264 264 264 264 264 264 263 263 263 263 263 263 262 263 263 263 262 262 262 262 261 261 261 261 261 260 260 259 259 258 258 258 258 257 257 257 257 257 256 256 256 257 257 258 258 259 259 259 258 258 259 259 260 260 260 259 259
266 265 266 266 266 265 266 266 265 265 265 265 265 265 265 265 265 265 265 265 265 265 265 265 265 264 264 264 264 263 264 264 264 264 263 263 263 263 263 263 263 263 263 263 263 262 262 262 262 262 261 261 261 260 259 259 259 258 258 258 257 257 257 257 257 257 256 256 256 257 257 257 258 258 259 259 258 258 259 259 260 260 260 259 258
265 265 265 266 265 265 265 265 265 265 265 265 265 265 264 265 265 265 265 265 265 265 265 265 265 265 264 264 264 263 263 263 264 264 263 263 263 263 263 263 263 263 263 263 263 263 263 263 263 262 262 262 261 260 260 259 258 258 258 258 257 257 257 257 257 257 256 256 256 257 257 257 258 258 258 258 258 258 259 259 260 259 259 258 258
265 265 265 265 265 265 265 265 265 265 265 265 265 264 264 264 265 265 265 265 265 265 265 265 265 265 264 264 264 264 264 264 264 264 263 263 263 263 263 263 263 263 264 264 264 264 263 263 263 263 263 262 262 261 261 260 259 258 258 258 257 257 257 257 257 257 256 256 256 257 257 257 258 258 258 257 258 258 259 259 259 259 258 257 258
264 265 265 265 265 265 265 265 264 264 265 265 264 264 264 264 265 265 265 265 265 265 265 265 265 265 264 264 264 264 264 264 264 264 263 263 263 263 263 263 263 263 264 264 264 264 264 264 264 264 263 263 263 263 262 262 261 260 260 259 258 257 257 258 257 257 256 256 256 257 257 257 257 257 257 257 258 259 259 260 259 258 257 257 258
264 265 265 265 265 265 264 264 264 264 265 265 264 264 264 264 265 265 265 265 265 265 265 265 265 265 265 265 265 265 265 265 264 264 264 264 263 263 263 263 263 263 264 264 264 264 264 264 264 264 264 264 263 263 263 263 263 263 262 261 260 258 258 258 257 257 257 256 256 257 256 257 257 257 257 258 259 259 260 260 258 257 257 257 257
264 265 265 265 265 265 264 264 264 264 265 265 264 264 264 264 265 265 265 265 265 265 265 265 265 265 265 265 265 265 265 265 265 264 264 264 264 263 263 263 264 264 264 264 264 264 264 264 265 264 264 264 263 263 263 263 264 263 263 263 262 261 259 258 258 257 257 257 257 257 257 257 257 257 258 259 259 260 260 259 258 257 257 256 256
264 264 265 265 265 264 264 264 264 265 265 265 264 263 264 264 265 265 265 265 265 265 265 265 265 265 265 265 265 265 265 265 265 265 264 264 263 263 264 264 264 264 264 264 264 264 264 264 265 265 264 264 264 263 263 263 264 264 264 263 263 263 262 260 259 258 258 257 257 257 257 257 257 257 259 259 260 260 259 258 257 257 256 257 256
264 264 264 265 265 264 264 264 265 265 265 264 264 263 264 264 265 265 265 265 265 265 266 266 266 265 265 266 266 266 266 266 265 265 265 264 263 264 264 264 264 264 264 264 264 264 264 264 264 264 264 264 264 263 263 262 263 263 264 264 264 264 263 262 261 259 258 258 258 258 258 258 258 258 260 260 260 260 258 257 257 256 256 256 256
263 264 264 264 264 264 264 264 265 265 265 264 264 263 264 264 265 265 265 265 266 266 266 266 265 265 266 266 266 266 266 266 265 265 265 264 264 264 264 264 265 265 265 265 265 265 264 264 264 264 264 264 264 263 262 262 262 262 263 263 264 264 264 263 261 260 259 258 258 258 258 258 259 260 260 260 259 259 257 257 257 256 256 256 256
263 264 264 264 264 264 265 265 264 265 265 264 264 263 264 264 265 265 265 266 266 266 266 266 266 266 266 266 266 266 266 265 265 265 265 264 264 264 264 264 265 265 265 266 265 265 265 264 264 264 264 264 264 263 262 262 262 262 262 263 263 264 264 263 262 261 260 259 259 258 258 259 260 260 260 259 258 257 257 256 256 256 256 255 255
263 264 264 264 264 265 265 265 265 265 265 264 264 264 264 264 265 265 265 266 266 266 266 266 266 266 266 266 266 267 266 265 265 265 265 264 264 264 264 264 265 265 266 266 266 266 265 265 265 264 264 264 264 264 263 262 262 262 261 261 262 263 264 263 263 262 261 260 260 260 259 259 259 259 259 258 257 257 256 256 256 256 255 255 255
264 264 265 265 265 265 265 265 265 265 265 265 264 264 264 265 265 265 265 266 266 266 266 266 266 266 266 266 266 267 266 265 265 265 264 264 263 263 263 264 264 265 266 266 267 266 266 266 265 265 264 264 264 264 263 262 262 261 260 260 260 261 262 262 262 262 262 262 262 262 261 260 259 258 258 257 257 256 256 256 256 255 255 255 255
264 265 265 265 265 265 265 265 265 265 265 265 264 264 264 265 265 265 265 265 266 266 266 266 265 265 266 267 266 266 266 266 265 264 264 263 263 263 263 263 264 264 265 266 267 267 267 266 266 265 264 264 264 264 264 263 262 261 260 259 259 260 260 260 259 260 260 261 262 262 261 260 259 258 258 257 257 256 256 255 255 255 255 255 255
266 266 265 265 265 265 265 265 265 265 265 265 264 264 264 265 265 265 265 265 266 266 266 266 266 266 266 267 266 266 266 266 265 264 264 263 263 263 263 263 263 264 265 266 266 267 267 267 267 266 265 265 265 265 264 263 262 261 260 259 258 259 259 258 258 258 258 258 259 260 259 259 258 258 257 257 256 256 256 255 255 255 255 255 255
266 266 265 265 265 265 265 265 265 265 265 264 264 264 264 265 265 265 265 265 266 266 266 266 266 266 266 266 266 266 265 266 265 264 264 263 263 263 263 263 263 263 264 265 265 266 266 267 267 266 265 265 265 265 265 264 263 262 261 260 259 259 258 258 258 258 258 258 258 258 258 257 257 257 257 256 256 256 255 255 255 255 255 255 255
266 265 265 265 264 264 264 264 265 265 264 264 264 264 264 264 265 265 265 265 266 266 266 266 266 267 266 266 266 266 265 265 265 264 264 263 263 263 263 263 263 263 263 265 265 265 266 266 266 266 265 265 265 265 265 265 264 263 262 261 260 259 258 258 258 257 257 257 257 257 257 256 256 256 256 256 255 255 255 255 255 254 254 254 255
266 265 265 264 264 264 264 264 264 264 264 264 264 264 264 264 264 265 265 265 266 265 265 266 266 267 267 266 266 265 265 265 264 264 264 263 263 264 264 264 263 263 263 264 265 265 265 265 266 266 265 265 265 265 265 265 264 263 262 261 260 259 258 258 257 257 256 256 256 256 256 256 255 255 255 255 255 255 255 254 254 254 254 254 254
266 265 264 264 264 264 264 264 264 264 264 264 264 264 264 264 264 265 265 265 265 265 265 266 266 266 266 266 266 265 265 264 264 264 264 264 264 264 264 264 264 263 263 264 264 265 265 265 266 265 265 265 265 265 265 265 264 263 262 261 260 259 258 258 257 256 256 256 255 255 255 255 255 255 255 255 254 254 254 254 254 254 254 253 253
265 264 264 264 264 264 264 264 264 264 264 264 264 264 264 264 264 265 265 265 265 265 265 265 266 266 266 266 267 266 266 265 265 265 264 264 264 265 265 265 264 263 263 264 264 265 265 265 265 265 265 265 265 266 266 265 264 263 262 261 260 258 257 257 256 256 255 255 255 255 255 255 255 254 254 254 254 254 254 254 253 253 253 253 253
265 264 264 264 264 263 264 264 264 264 264 264 264 264 264 264 264 265 265 265 265 265 265 265 266 266 266 266 266 267 267 267 266 265 265 265 265 265 265 265 265 264 263 264 264 265 265 266 266 266 266 266 265 265 265 264 264 263 262 260 259 258 257 256 256 255 255 255 255 254 254 254 254 254 254 254 254 254 254 253 253 253 253 252 252
264 263 263 263 263 263 263 264 263 263 264 264 264 264 263 263 264 264 265 265 265 265 265 266 266 266 266 266 266 267 267 267 266 266 265 265 265 265 265 265 265 264 264 264 264 265 266 266 266 266 266 266 266 265 264 263 262 262 261 260 259 258 257 256 255 255 255 255 254 254 254 254 254 254 254 254 254 253 253 253 252 252 252 252 252
264 263 263 263 263 263 263 264 264 264 264 264 264 264 264 264 264 265 266 266 265 265 266 266 266 266 266 266 266 266 267 268 266 265 265 265 265 265 265 265 264 264 264 264 265 266 267 267 267 267 267 267 267 266 265 264 263 262 260 259 258 257 257 256 256 255 255 254 254 254 254 254 254 254 253 253 253 253 253 252 252 252 252 251 252
263 263 263 263 263 263 263 264 264 264 264 264 264 264 264 264 265 265 266 265 265 265 266 266 266 266 266 266 266 266 267 268 266 265 264 264 264 264 265 265 264 264 264 264 264 265 266 266 266 266 265 265 264 264 264 263 263 262 260 258 258 257 256 256 255 255 255 254 254 254 254 253 253 253 253 253 253 253 252 252 251 251 251 251 251
262 262 263 262 263 263 263 263 263 264 264 265 265 264 264 264 264 265 265 265 265 265 266 266 266 266 266 266 266 265 266 267 266 265 264 264 264 264 264 264 264 263 263 263 263 264 265 265 265 264 263 261 261 260 260 259 259 259 259 257 257 256 256 256 255 255 254 254 254 253 253 253 253 253 253 252 252 252 252 251 251 251 251 251 251
262 262 262 262 263 263 263 263 263 264 264 265 264 264 263 263 264 264 265 264 264 265 266 266 266 266 266 266 266 266 266 266 265 265 265 264 264 264 264 264 264 264 263 262 263 264 264 263 263 263 261 260 259 259 258 258 257 257 257 256 256 256 255 255 255 254 254 254 254 253 253 253 253 252 252 252 252 252 251 251 251 251 250 250 250
262 262 262 263 263 263 264 264 264 264 264 264 264 263 263 263 264 264 265 265 265 265 265 266 266 266 266 266 266 266 266 265 265 265 264 264 264 264 264 265 265 264 263 262 262 263 263 262 262 261 260 259 259 258 257 257 257 256 256 256 256 255 255 255 255 254 254 254 253 253 253 253 252 252 252 252 252 251 251 251 250 250 250 250 250
264 263 263 263 263 263 263 264 264 264 264 264 264 263 263 263 264 265 265 265 265 265 265 266 266 266 266 266 266 266 266 265 264 264 264 264 264 265 265 265 265 264 263 262 262 263 263 262 262 261 260 259 258 258 257 257 256 256 256 255 255 255 255 255 254 254 254 253 253 253 253 253 252 252 252 252 251 251 251 250 250 250 250 250 250
265 265 265 265 264 264 264 264 264 265 265 265 264 264 263 264 264 265 265 265 265 266 266 266 266 266 266 266 266 265 265 265 264 264 264 265 265 265 265 266 265 264 263 262 261 262 262 262 262 261 260 259 258 257 257 256 256 256 256 255 255 255 255 254 254 254 254 253 253 253 253 252 252 252 251 251 251 251 251 250 250 250 250 249 249
265 266 266 266 266 265 265 265 265 265 265 265 264 264 264 264 264 264 264 265 265 266 266 266 266 266 266 266 266 265 265 265 265 265 265 265 265 265 265 266 266 266 265 263 262 262 262 261 261 260 259 258 258 257 257 256 256 256 255 255 255 255 255 254 254 254 254 253 253 253 253 252 252 252 251 251 251 251 250 250 250 250 250 249 249
265 265 265 266 266 266 266 265 265 265 265 265 265 264 264 264 264 264 265 265 265 266 267 267 267 266 266 266 266 266 266 266 265 266 266 266 266 266 265 266 266 266 265 265 264 263 262 261 260 260 259 258 258 257 257 256 256 256 255 255 255 254 254 254 254 254 253 253 253 253 253 252 252 252 251 251 251 251 250 250 250 250 250 249 249
264 265 265 265 266 266 266 265 265 265 265 265 265 264 263 263 263 264 264 265 265 266 267 267 268 268 268 267 267 266 266 266 266 266 266 266 266 266 266 265 264 263 264 263 262 261 261 261 260 259 259 258 257 257 257 256 256 256 255 255 255 254 254 254 254 253 253 253 253 253 252 252 252 252 251 251 251 251 251 250 250 250 249 249 249
265 265 266 266 266 266 265 265 265 265 265 265 264 263 263 263 263 264 264 265 265 266 266 267 267 268 269 268 267 266 267 267 267 267 267 267 267 266 266 265 264 263 262 262 261 260 260 261 260 259 259 258 257 257 257 256 256 256 255 255 255 254 254 254 254 253 253 253 253 253 252 252 252 252 251 251 251 251 251 250 250 250 249 249 249
264 264 265 266 266 266 266 266 266 265 265 264 264 263 263 263 263 264 264 265 265 265 266 266 267 268 268 268 267 266 267 267 267 267 267 267 267 267 266 266 265 264 263 262 262 261 260 260 260 260 259 258 258 257 257 256 256 256 255 255 255 254 254 254 254 253 253 253 253 253 252 252 252 252 251 251 251 251 251 251 250 250 249 249 249
263 264 265 265 266 266 266 266 266 265 265 264 264 263 263 263 264 264 264 265 265 265 266 266 267 268 268 267 266 266 266 267 267 266 267 267 267 267 267 266 265 264 264 263 262 262 261 261 260 260 259 259 258 257 257 257 256 256 256 255 254 254 254 254 253 253 253 253 253 253 252 252 252 252 251 251 251 251 251 251 250 250 250 249 249
263 264 264 265 265 265 265 265 265 265 265 265 264 264 264 264 264 264 264 264 264 265 265 266 267 268 267 266 266 266 265 266 266 266 266 267 267 267 267 267 266 265 264 264 263 262 261 261 261 260 259 259 258 258 257 257 256 256 255 255 255 254 254 254 254 253 253 253 253 252 252 252 252 252 251 251 251 251 251 251 250 250 250 250 249
264 264 264 264 264 265 265 265 265 265 265 264 264 264 264 264 264 264 264 264 264 265 265 266 267 267 267 266 266 266 265 266 266 266 266 267 267 267 267 267 266 265 264 264 263 261 261 261 261 260 259 259 258 258 257 257 256 256 255 255 255 254 254 254 254 254 253 253 253 252 252 252 252 252 251 251 251 251 251 251 251 250 250 250 249
264 264 265 265 265 265 265 265 265 265 265 265 264 264 264 264 264 264 264 264 264 264 265 266 267 267 267 267 266 266 266 266 266 266 266 267 267 267 267 267 266 266 265 264 263 261 260 260 261 261 260 259 259 258 257 257 256 256 255 255 255 255 254 254 254 254 253 253 252 252 252 252 252 251 251 251 251 251 251 251 251 251 250 250 250
264 264 264 265 265 265 265 265 265 265 265 265 265 264 264 264 264 263 263 263 264 264 265 266 266 266 267 267 267 266 266 266 266 266 266 266 267 267 267 266 266 266 265 265 263 262 261 260 261 261 261 261 260 259 258 257 257 256 256 255 255 255 255 254 254 254 253 253 252 252 252 252 252 251 251 251 251 251 251 251 251 250 250 250 250
264 264 264 264 264 264 264 265 265 265 265 265 264 264 264 264 263 263 263 263 264 264 265 265 265 266 266 267 267 267 267 266 266 266 266 267 267 267 267 266 266 266 266 265 264 263 261 261 261 261 262 262 261 260 259 259 258 257 257 256 255 255 255 254 254 254 253 252 252 252 252 252 252 251 251 251 251 251 251 251 251 250 250 250 250
264 264 264 264 265 264 264 265 265 265 265 265 264 264 264 264 263 263 263 263 264 264 265 265 265 265 266 266 267 267 267 266 266 267 267 267 267 267 267 266 266 266 266 265 264 263 262 262 261 261 261 262 262 261 261 260 260 259 258 257 256 256 255 255 254 254 253 253 253 252 252 252 252 252 251 251 251 251 251 251 251 250 250 250 250
264 264 264 265 265 265 265 265 265 265 265 265 265 264 264 264 264 263 264 264 264 264 264 265 265 265 265 266 267 267 267 266 266 267 267 267 267 267 267 267 266 266 266 266 265 263 263 262 262 262 262 262 262 262 262 262 261 260 259 258 257 256 256 255 254 254 254 253 253 253 252 252 252 252 252 251 251 251 251 251 251 250 250 250 250
264 264 264 265 265 265 265 265 265 265 265 265 265 265 264 264 264 264 264 264 264 264 264 265 265 265 265 266 266 267 267 266 267 267 267 267 267 267 267 267 266 266 266 266 265 264 264 263 263 263 262 263 263 263 263 263 262 261 260 259 258 257 256 256 255 254 254 254 253 253 253 252 252 252 252 252 251 251 251 251 251 251 250 250 250
263 264 264 264 265 265 266 266 266 266 266 266 265 265 265 264 264 264 265 265 264 264 265 265 265 265 265 266 266 267 266 266 267 267 267 267 267 267 267 267 266 266 266 266 265 265 265 264 264 264 264 264 264 264 263 263 262 261 260 259 259 258 257 256 255 255 254 254 254 253 253 253 252 252 252 252 252 251 251 251 251 251 250 250 250
263 264 264 265 265 266 266 266 266 267 266 266 265 265 265 265 265 265 265 265 265 265 265 265 265 265 265 266 266 266 266 266 267 267 267 267 267 267 267 267 266 266 266 265 265 265 265 265 265 265 265 265 265 264 264 263 262 261 260 259 259 258 257 256 255 255 254 254 254 253 253 253 253 253 252 252 252 251 251 251 251 251 251 250 250
263 264 264 264 265 265 266 266 266 266 266 266 266 266 266 266 266 266 266 265 265 265 265 265 265 265 265 266 266 266 266 267 267 267 267 267 267 267 267 266 266 266 266 266 266 266 266 266 266 266 266 266 265 265 264 263 262 261 260 259 258 258 257 256 255 255 254 254 254 253 253 253 253 252 252 252 252 252 251 251 251 251 251 251 250
Wind_Speed
25 24 24 23 22 21 20 18 17 16 15 14 13 13 13 12 12 11 10 10 11 10 11 11 11 11 11 13 15 17 18 19 19 19 20 19 19 19 19 18 18 18 18 18 18 18 19 19 20 20 21 21 22 22 22 22 22 22 20 19 19 16 15 16 12 20 38 39 36 44 45 43 46 46 45 48 49 48 48 48 45 41 40 39 39
25 24 24 23 22 21 19 18 17 15 14 13 13 13 12 12 11 10 9 10 10 10 10 10 10 9 10 11 13 15 16 17 17 18 20 20 20 20 19 19 19 18 18 18 18 18 19 19 20 20 21 22 22 22 23 23 23 24 23 20 21 21 17 19 19 18 31 43 44 44 43 40 42 46 45 46 48 48 50 50 46 43 40 37 40
25 24 24 23 21 20 19 18 16 15 14 13 13 13 12 12 10 9 9 10 9 9 9 9 8 8 8 9 11 12 13 15 16 17 19 20 21 21 20 19 19 19 19 19 19 19 19 20 20 21 22 22 22 22 23 24 23 24 24 22 22 24 20 19 21 21 27 39 42 41 43 43 42 42 42 43 45 48 48 46 44 43 41 38 42
26 25 24 23 22 20 19 18 16 15 14 13 13 12 12 11 10 9 9 9 8 8 7 7 7 6 7 8 9 10 11 13 14 16 17 19 21 22 21 19 19 19 19 19 19 19 19 20 20 21 22 23 23 24 23 24 25 25 25 25 23 24 25 21 22 24 26 33 39 40 41 42 41 40 39 40 44 48 46 43 42 42 41 41 44
26 25 24 23 22 21 19 18 16 15 14 13 13 12 12 11 10 9 9 8 7 7 6 6 5 5 6 7 9 10 11 12 13 14 16 18 20 22 22 21 20 19 19 19 19 19 19 20 20 21 22 23 24 24 25 25 26 26 26 27 26 25 26 25 24 25 26 29 37 41 39 38 39 38 36 37 44 47 45 43 41 39 40 45 47
26 26 25 24 23 21 19 18 16 15 14 13 13 12 11 11 10 9 8 7 6 6 5 5 5 5 5 6 8 9 10 12 12 13 15 17 18 21 23 22 20 19 19 19 18 18 19 19 20 21 21 23 24 24 26 26 26 28 27 27 27 27 27 27 26 26 27 28 33 38 38 36 36 37 36 36 40 42 43 45 45 40 41 46 50
27 26 25 24 23 21 20 18 17 16 15 13 13 12 11 10 10 9 8 7 5 4 4 4 4 4 5 5 6 8 10 11 12 13 16 17 18 21 23 23 21 20 19 19 18 18 19 19 20 22 22 22 24 25 25 27 28 28 28 27 27 27 27 28 28 27 28 28 29 32 34 33 32 34 37 37 36 34 35 40 44 48 48 47 48
28 27 26 25 23 22 20 19 17 16 15 14 13 12 11 10 9 8 7 6 5 3 3 3 3 4 4 5 5 7 9 10 12 15 16 17 19 21 22 23 22 21 19 19 19 18 19 20 20 22 22 23 24 24 25 26 28 30 29 28 27 27 27 28 29 28 27 27 28 29 30 32 32 33 36 38 35 33 34 35 36 44 51 50 46
29 28 26 25 24 22 21 19 18 17 15 14 13 12 11 10 9 8 7 5 4 3 2 2 2 3 4 4 5 6 7 9 11 14 17 17 19 21 22 21 21 22 21 20 19 19 20 21 21 22 23 23 23 24 25 25 27 29 30 29 27 27 27 28 29 28 26 25 26 27 27 29 31 33 35 36 33 34 39 37 33 38 45 48 45
30 29 27 26 25 23 22 20 19 17 16 15 13 12 11 10 9 8 7 5 4 3 2 0 1 2 2 4 5 6 7 8 8 10 14 17 20 22 21 21 20 21 22 22 21 21 21 21 22 23 23 24 24 24 26 26 26 27 28 28 27 26 27 29 29 28 26 24 25 26 24 25 30 32 33 35 36 37 39 36 35 40 40 37 37
31 30 28 27 26 24 23 21 20 18 17 15 14 13 12 10 9 8 7 5 4 3 2 2 1 2 3 3 5 6 7 8 9 9 10 14 19 23 21 20 21 20 21 22 22 23 23 22 23 23 24 25 25 26 27 27 27 28 28 28 27 25 25 27 28 28 26 25 26 26 23 25 31 33 33 37 39 37 35 33 34 37 32 23 22
32 31 29 28 27 25 24 22 21 19 18 16 15 13 12 10 9 8 7 6 4 4 3 3 2 3 3 4 6 7 7 9 10 10 9 10 16 22 21 20 21 20 20 21 21 23 24 25 24 24 24 25 26 28 29 29 29 29 28 29 28 27 25 25 26 27 26 26 28 28 26 27 31 33 33 38 41 37 34 33 33 32 29 22 18
33 31 30 29 28 26 25 23 22 20 18 16 15 14 13 11 10 8 7 6 5 4 4 4 3 3 4 4 6 7 8 10 10 11 11 11 14 19 20 19 20 20 19 20 21 22 24 26 26 25 25 26 27 29 30 31 32 31 30 29 29 28 28 27 25 24 24 25 27 30 31 30 32 34 35 36 38 36 34 35 35 31 28 26 26
33 32 31 30 29 27 26 24 22 21 19 17 16 15 13 11 10 8 7 6 5 5 4 4 3 4 5 5 7 8 9 11 11 12 13 13 14 18 20 20 20 19 19 20 21 22 23 25 27 27 27 26 28 30 31 32 33 33 32 32 30 29 29 29 28 26 24 24 26 31 34 33 33 36 35 32 31 33 34 36 36 34 32 31 33
34 33 32 31 30 29 27 25 23 21 19 18 17 16 14 12 10 9 8 6 6 5 4 4 4 5 6 6 7 8 10 12 12 14 15 14 16 19 20 20 20 20 20 21 21 22 23 25 26 27 27 27 28 30 31 32 33 33 34 33 32 32 31 29 29 29 27 26 26 30 33 33 32 33 32 30 29 29 30 32 33 34 35 34 33
35 34 34 33 31 30 28 26 24 22 20 19 18 17 15 13 11 9 8 7 6 5 5 4 4 5 6 7 8 8 10 12 13 14 16 16 18 20 21 22 22 22 22 21 22 22 23 25 26 27 28 28 28 30 31 32 32 33 34 34 34 34 32 31 30 31 30 30 29 30 30 29 29 29 28 27 27 27 28 29 29 30 30 28 27
36 36 35 34 33 31 28 27 25 23 22 20 19 18 15 13 11 10 8 7 6 5 5 4 5 5 6 7 9 9 9 12 14 15 16 18 19 21 23 24 24 25 24 23 23 23 23 24 26 28 29 29 29 29 30 31 32 32 33 34 35 36 34 33 33 33 33 33 33 31 30 28 28 27 26 26 25 26 26 26 28 28 24 19 17
38 37 36 35 33 31 29 27 26 24 22 21 19 18 16 14 12 10 8 6 6 5 5 5 5 6 6 7 9 10 10 11 14 15 16 18 20 21 23 24 25 26 27 26 26 25 25 26 26 28 30 30 30 30 29 30 31 31 31 33 35 37 36 36 36 37 36 37 36 34 33 31 30 30 29 28 26 25 23 25 27 27 22 16 16
40 38 37 35 33 31 29 27 26 24 22 21 19 17 16 14 12 10 8 7 6 6 6 5 5 6 7 8 9 11 11 12 13 16 17 17 19 20 22 24 26 27 28 29 29 28 27 27 28 29 30 30 30 30 30 30 30 29 30 31 33 35 36 36 37 38 40 40 39 38 36 34 32 31 30 29 28 26 24 25 27 25 23 21 21
40 38 36 35 33 31 29 28 26 24 22 20 19 18 16 14 12 10 9 8 7 7 6 6 6 6 7 8 9 11 13 13 13 15 17 17 18 20 21 23 26 28 29 30 31 31 30 29 29 29 29 30 30 30 30 29 29 28 27 28 30 33 34 34 35 37 38 39 39 38 37 35 33 32 32 31 30 29 27 27 26 25 24 24 24
39 37 36 35 33 31 29 28 25 23 21 20 19 18 16 14 12 11 10 9 8 8 7 7 6 6 7 9 10 11 14 15 14 15 17 17 18 19 21 22 24 27 29 30 31 32 32 31 30 30 30 30 30 30 30 30 28 27 26 26 28 30 31 33 35 35 36 36 37 37 36 35 34 34 33 33 31 31 31 29 27 25 24 24 25
39 37 36 35 33 32 29 27 25 23 22 21 20 18 17 15 13 12 11 10 9 8 8 8 7 6 7 9 11 12 13 15 16 17 17 17 18 19 21 22 23 25 28 29 30 31 32 32 31 31 31 31 31 30 30 30 29 28 27 27 28 28 29 31 33 34 34 34 35 35 34 34 34 35 35 35 34 33 33 31 28 26 25 24 24
39 37 36 35 33 32 30 27 26 24 23 22 20 19 17 16 14 13 12 11 9 8 9 8 8 8 8 8 10 12 14 15 16 17 18 18 18 19 21 22 22 24 26 28 29 30 31 32 32 32 31 31 31 31 30 30 29 28 28 28 28 28 29 31 32 33 33 33 32 32 33 33 33 35 35 36 36 35 34 32 30 28 27 25 24
38 37 37 35 34 32 29 28 26 25 24 22 21 20 18 17 15 14 13 12 10 9 9 9 8 9 9 9 9 10 12 14 15 16 17 17 18 19 20 21 22 24 25 28 29 31 32 33 33 33 32 32 32 32 31 30 29 29 30 29 29 29 29 31 32 31 31 31 30 31 33 32 32 34 34 35 35 35 34 32 30 29 28 28 27
39 38 37 35 34 32 30 28 26 25 24 23 22 21 19 18 17 16 14 13 11 10 10 9 9 9 10 11 11 10 11 12 13 13 15 17 18 19 20 21 23 25 26 28 30 31 33 34 34 34 33 33 33 33 32 31 30 31 31 30 30 30 29 30 30 29 29 30 30 30 32 33 33 33 33 33 32 33 34 34 33 31 29 30 29
40 38 37 36 34 32 30 29 27 25 24 24 23 21 20 18 17 16 15 13 12 11 10 10 10 10 11 12 13 13 12 12 11 12 14 17 19 20 22 23 24 26 28 29 31 33 34 35 35 34 34 34 34 34 33 33 32 32 32 31 30 30 29 28 28 27 27 28 29 31 33 34 33 33 32 31 31 31 33 34 34 33 32 32 31
40 39 38 36 34 33 32 30 28 27 25 24 23 22 21 19 19 18 17 14 13 12 11 10 10 10 12 13 14 15 14 12 11 13 16 19 21 22 24 25 27 28 30 31 33 34 35 34 34 34 34 34 35 35 35 35 34 34 33 32 31 30 29 28 26 25 25 27 29 31 33 34 33 33 32 31 30 30 31 32 32 32 32 31 28
40 39 38 37 35 34 32 30 29 28 26 26 25 24 23 22 21 19 16 13 12 12 11 11 10 10 12 14 15 17 16 13 13 16 19 21 23 25 26 28 29 30 31 32 33 34 34 33 32 33 33 34 36 37 37 37 36 36 35 34 33 32 30 29 28 27 26 27 30 31 33 33 33 32 32 30 29 29 30 30 30 30 31 29 25
40 39 38 37 36 34 32 30 29 28 27 26 25 24 23 21 20 17 14 13 13 13 12 12 11 11 13 15 16 18 18 15 15 18 20 21 23 25 27 28 30 31 30 30 32 33 33 33 33 33 34 35 36 37 38 38 38 38 36 35 34 33 31 30 29 29 29 29 29 30 31 31 32 31 31 30 29 29 30 29 28 29 29 27 23
39 38 38 37 36 35 33 31 29 28 27 26 25 24 22 20 19 17 15 14 14 14 13 12 11 12 15 15 15 17 18 18 18 20 21 22 23 24 26 28 29 30 29 28 29 30 31 32 33 33 33 34 34 35 36 36 37 37 37 35 33 32 31 30 29 30 30 30 29 29 29 29 30 30 30 30 31 31 30 29 28 27 27 26 24
39 39 39 38 37 36 34 32 30 28 27 26 25 24 22 21 20 18 16 14 14 14 14 13 12 13 16 16 16 17 17 18 20 21 22 23 24 25 27 28 27 27 26 26 27 28 28 29 31 32 32 32 32 33 33 34 34 35 36 36 34 31 30 31 31 30 30 30 28 28 27 28 28 29 28 29 30 31 30 29 28 26 25 24 23
41 40 40 38 37 36 33 32 30 29 27 26 25 24 23 22 21 18 16 15 15 15 15 14 14 14 15 16 17 17 18 18 20 22 23 24 25 26 28 28 26 25 23 23 24 26 27 27 29 31 31 31 32 32 32 32 32 32 33 34 34 32 31 31 31 30 29 28 27 27 27 27 27 28 27 27 28 29 30 29 28 27 26 24 22
42 41 40 38 36 35 33 31 30 29 28 27 26 25 24 24 21 18 16 16 16 16 16 15 15 14 15 15 16 17 18 19 21 22 22 23 25 27 28 27 26 24 22 21 22 25 27 27 29 30 30 31 32 32 32 32 32 32 32 32 33 33 32 31 31 29 28 27 26 26 26 26 26 27 27 27 26 26 27 28 28 27 26 25 24
42 41 41 39 37 36 34 32 31 29 28 28 27 26 25 23 20 18 16 16 17 17 16 15 14 14 14 15 15 16 18 19 20 21 21 23 25 26 27 27 26 24 22 21 23 25 27 28 29 30 31 31 32 32 32 32 31 31 32 32 32 33 33 32 30 29 28 27 26 26 26 26 26 26 26 26 26 25 25 25 26 26 25 25 25
39 39 39 38 37 36 34 33 31 29 29 28 27 26 24 22 20 18 18 18 18 18 17 15 14 14 14 15 15 16 17 18 19 20 21 22 23 24 26 28 28 27 25 25 25 27 28 28 29 30 30 31 32 31 32 32 32 31 32 32 33 33 33 32 30 29 28 27 26 26 26 25 25 25 25 25 24 24 24 24 24 24 24 25 25
38 37 37 37 36 35 34 33 31 30 29 27 26 24 23 21 20 19 18 18 19 19 18 16 14 14 14 14 14 15 16 17 19 20 20 21 22 23 24 26 28 28 28 27 27 28 28 29 29 30 30 31 31 31 31 32 32 32 31 32 32 32 31 31 30 29 28 27 27 26 26 25 25 25 25 24 24 23 23 24 23 23 24 24 23
39 38 38 37 35 34 33 32 30 28 27 26 25 24 22 21 20 19 19 19 20 20 19 17 16 15 14 13 13 14 16 18 20 20 20 20 20 22 23 25 26 28 29 29 28 29 30 30 30 30 31 31 31 31 31 31 32 32 32 31 31 31 31 30 29 28 27 27 26 26 25 25 25 24 23 24 24 24 23 24 24 24 24 24 22
40 38 38 36 35 34 32 30 29 27 26 25 24 23 23 22 21 20 21 21 21 20 20 18 17 17 15 13 13 16 18 20 20 20 20 20 21 22 23 25 26 27 29 29 29 29 31 31 31 31 31 31 31 31 31 31 31 32 32 32 31 31 30 29 28 27 26 26 26 25 25 25 24 23 22 22 23 24 24 24 24 24 24 24 22
38 37 36 35 34 33 31 30 29 28 27 26 25 24 24 23 22 22 22 22 22 22 21 19 19 18 15 14 15 18 20 21 22 22 22 22 22 23 24 26 27 27 29 30 30 30 31 32 32 32 31 31 31 30 30 31 31 31 31 31 31 31 29 28 28 27 26 26 26 25 24 24 23 23 22 21 22 23 24 24 24 24 23 23 23
38 36 35 34 33 32 31 30 29 29 28 27 26 25 25 24 24 24 23 23 23 22 21 21 20 18 15 15 16 19 21 23 23 23 24 24 24 25 25 26 28 28 29 30 30 30 32 32 32 32 31 31 30 30 30 30 30 31 31 30 30 30 29 28 27 27 27 26 26 25 24 24 24 23 22 21 21 22 23 24 25 24 23 23 24
39 37 36 35 34 32 31 30 30 29 28 28 27 26 26 25 25 24 24 24 24 23 22 22 21 18 16 16 17 19 22 23 23 23 24 25 25 25 26 26 28 28 29 30 30 30 31 32 32 31 31 31 30 29 29 29 29 30 30 30 29 30 30 29 27 27 26 26 25 25 24 24 24 23 22 23 22 22 23 23 24 24 23 23 23
40 39 38 36 34 33 32 32 30 29 28 28 27 27 26 25 25 25 24 25 24 24 23 24 22 19 17 18 19 20 22 23 23 23 24 25 25 26 26 26 27 28 29 30 30 30 30 31 31 31 30 30 29 29 29 28 28 28 29 29 29 29 30 29 28 27 26 26 25 25 25 25 24 23 23 23 23 23 23 23 23 23 24 23 23
41 40 39 38 36 34 33 32 31 29 29 29 28 27 26 26 25 25 25 25 25 25 25 24 23 20 18 19 20 22 23 24 23 24 24 25 25 26 26 27 28 29 29 30 29 29 29 30 30 30 30 29 28 28 28 27 27 27 28 28 29 29 29 29 28 27 26 26 27 27 27 26 25 24 23 23 23 23 23 23 23 23 23 24 23
41 40 39 37 36 35 33 32 31 31 30 29 28 27 27 26 26 26 26 26 26 25 26 25 24 22 21 20 21 23 24 24 23 24 24 25 25 26 26 27 28 29 30 30 30 29 29 29 29 29 29 28 27 27 27 26 26 26 26 27 28 28 28 28 27 26 26 26 27 28 28 27 26 25 24 24 24 24 24 24 24 24 24 24 24
41 40 39 38 36 35 34 33 32 31 30 29 28 28 28 28 28 28 28 27 27 26 26 25 24 23 23 22 22 24 24 24 24 24 24 25 26 26 27 28 29 30 31 31 30 29 29 29 28 28 28 27 27 27 27 26 25 25 25 25 26 27 27 26 25 25 25 25 26 27 28 27 27 26 26 25 24 24 24 24 24 24 24 24 24
42 41 40 39 37 36 35 34 32 31 30 30 30 30 30 30 30 29 28 28 28 28 27 26 25 25 24 23 23 24 25 24 24 24 24 25 26 27 27 28 29 31 31 31 31 29 29 28 28 28 28 27 27 27 26 26 25 25 24 24 24 25 25 24 24 24 24 24 25 26 27 28 28 27 26 26 25 24 25 25 23 23 23 23 23
42 41 41 39 38 37 36 34 33 32 32 31 31 31 31 31 30 29 29 29 29 28 28 27 26 26 25 24 24 25 25 24 24 24 24 25 26 27 28 29 30 31 31 31 30 30 29 28 27 27 27 28 28 27 27 26 25 25 24 24 23 23 22 22 22 23 23 23 24 25 25 27 28 27 27 27 26 26 25 24 23 23 22 22 22
42 42 41 39 38 37 36 35 33 33 33 32 32 32 32 31 30 30 29 29 29 29 29 28 27 26 25 24 24 25 24 24 24 24 24 25 26 27 28 29 30 31 32 31 30 29 28 27 27 27 27 28 28 28 27 27 26 25 24 23 22 21 21 21 21 22 22 22 22 23 24 25 26 27 27 27 27 26 25 25 24 23 22 21 21
43 42 41 40 39 38 37 36 34 33 33 33 33 33 32 31 31 30 30 29 29 29 29 28 27 26 25 24 24 25 24 24 24 24 24 25 26 27 28 29 30 31 32 31 30 29 28 27 27 27 28 28 28 28 28 27 26 25 24 23 21 20 20 20 20 20 20 20 21 22 23 25 26 27 27 27 27 25 25 24 24 23 22 21 21
43 43 42 41 41 39 38 35 34 32 32 32 32 32 32 31 31 30 29 29 29 28 28 27 26 25 24 24 24 24 24 23 24 24 25 25 26 27 28 30 31 31 31 31 30 29 27 27 27 27 28 28 28 28 28 27 27 25 24 23 21 21 20 19 19 19 18 19 21 22 23 25 27 27 27 27 26 25 24 23 23 23 22 21 20
43 43 42 41 41 39 37 35 34 33 32 32 31 31 31 31 30 29 28 28 28 28 27 26 25 24 24 24 24 24 23 23 23 24 25 26 27 28 29 30 31 31 30 30 29 28 27 27 27 28 28 28 28 28 28 27 26 25 25 24 23 22 21 20 20 20 19 19 20 22 24 26 27 27 27 27 26 25 24 23 22 22 21 21 19
Wind_Direction
152 150 147 146 144 142 140 138 135 132 131 130 126 117 111 105 100 96 94 91 89 86 81 77 74 73 72 68 66 63 61 57 52 47 41 34 28 24 21 17 14 13 12 10 9 7 7 7 8 7 7 7 7 6 4 2 357 354 355 349 339 339 323 300 280 290 307 314 315 319 327 330 330 333 334 333 336 338 338 339 342 342 341 340 339
155 153 150 149 148 145 144 141 138 137 137 135 129 121 115 109 104 103 100 95 93 90 85 80 75 74 71 67 64 62 60 57 51 46 40 32 24 19 15 11 8 7 6 5 4 3 3 4 4 4 3 3 3 4 1 359 356 350 349 348 336 333 330 309 295 290 303 313 318 321 326 328 328 332 335 333 333 335 336 339 342 342 341 340 338
157 156 154 153 152 149 148 145 142 143 142 138 132 125 119 115 113 112 104 97 95 94 91 84 78 73 69 64 61 58 56 54 49 44 38 30 21 15 11 6 2 0 359 359 359 359 360 1 1 0 359 360 359 360 358 355 353 348 344 344 335 330 330 318 304 296 298 307 315 320 324 326 326 328 332 332 332 334 334 337 340 340 341 339 337
160 159 157 156 155 153 152 149 147 149 146 142 136 130 125 122 122 117 107 101 99 99 97 91 81 74 67 59 54 50 49 49 46 41 35 26 17 10 5 1 357 355 354 353 354 355 357 358 359 358 355 355 355 354 355 352 348 345 341 339 336 329 328 322 310 303 300 303 309 315 319 322 323 325 329 331 332 334 334 335 337 338 338 337 337
163 163 161 160 158 157 156 153 153 155 151 147 142 135 132 129 127 121 112 107 104 102 100 96 88 74 62 53 46 41 40 39 40 39 32 21 12 5 1 357 353 351 351 350 351 352 354 355 355 356 353 351 351 350 350 349 345 342 340 337 335 331 326 322 315 310 304 300 305 312 318 320 321 324 330 332 331 333 334 335 336 336 336 336 337
167 166 165 164 162 161 160 158 159 160 157 153 148 142 139 135 132 125 117 112 110 109 106 96 86 69 53 44 37 34 34 30 27 30 28 17 6 359 355 353 351 349 348 348 349 350 352 354 353 353 352 348 348 348 346 345 343 339 338 336 334 331 325 322 320 316 310 304 304 310 317 321 322 324 330 334 332 331 333 333 334 335 336 336 336
170 170 169 167 166 165 163 163 165 165 162 158 153 149 146 142 139 131 124 122 120 118 110 92 74 57 43 31 26 23 25 23 17 19 21 12 1 353 350 350 349 347 346 346 348 349 350 354 353 351 352 349 346 347 344 342 340 337 335 335 333 329 324 322 322 318 314 311 308 310 315 319 320 321 326 333 333 333 335 334 331 332 335 335 335
173 173 172 171 169 168 167 168 170 169 167 164 159 156 153 149 145 138 133 133 134 135 117 88 62 45 30 15 16 12 11 14 11 11 13 7 356 349 345 346 346 344 344 346 348 351 352 353 355 353 352 351 348 346 344 341 338 335 335 335 332 327 324 322 321 320 317 313 312 313 316 318 320 322 327 334 337 336 336 333 325 327 331 331 332
176 176 175 174 172 171 171 172 174 173 172 170 166 163 161 156 152 147 143 147 152 158 139 88 46 28 17 3 8 7 2 8 7 5 7 0 350 344 340 342 344 341 341 345 348 352 354 354 356 355 353 351 348 344 343 342 339 335 334 335 332 327 324 322 321 320 318 315 314 316 318 319 322 327 329 333 334 330 330 329 323 324 328 327 329
179 179 178 177 175 174 175 176 177 177 176 174 171 170 168 164 160 156 154 162 171 178 184 152 2 355 355 351 358 1 357 0 360 359 3 355 342 337 336 339 343 341 339 342 347 350 354 355 355 355 353 349 346 343 341 340 339 335 335 336 333 327 323 321 322 321 319 315 314 317 319 317 320 325 324 325 327 326 327 329 325 326 330 328 328
181 182 180 179 178 178 179 180 180 181 180 178 177 176 176 171 167 165 163 173 189 199 218 245 277 305 327 340 347 352 351 348 348 350 359 353 335 329 331 336 341 342 340 342 346 348 349 352 354 354 352 348 345 342 340 338 337 336 336 336 335 330 325 322 321 321 318 313 312 315 314 311 316 321 320 322 326 326 325 326 326 328 331 331 326
183 184 183 182 182 181 182 182 183 184 182 181 182 182 183 179 175 174 173 182 202 213 230 254 273 296 320 334 336 341 341 339 342 341 347 351 330 321 327 336 338 340 342 343 346 347 347 347 350 352 350 348 344 342 339 338 337 337 336 337 336 334 332 327 323 320 318 312 309 311 311 311 313 317 320 323 323 322 322 324 326 325 324 321 314
185 185 184 185 185 184 185 185 186 186 183 183 187 187 188 187 184 183 184 192 211 224 239 256 275 297 314 322 325 332 334 334 339 336 337 343 326 317 325 335 334 337 342 344 346 348 348 346 346 349 349 347 346 343 341 338 337 337 337 336 336 336 336 335 331 325 320 312 306 306 311 313 310 313 320 324 321 321 322 322 323 323 319 316 311
186 186 185 186 187 186 187 188 188 188 185 186 191 192 193 193 191 191 194 201 216 229 243 259 276 296 305 311 319 326 330 332 335 332 333 334 323 318 325 330 330 335 342 346 348 349 349 348 346 347 347 348 347 346 343 339 337 336 336 335 335 337 337 338 337 332 327 319 308 306 312 314 311 312 320 323 319 319 321 319 320 320 315 312 310
186 187 187 187 189 188 188 189 190 188 187 189 194 196 197 197 196 197 199 206 220 232 243 258 273 287 295 305 316 323 325 329 331 328 329 328 320 318 323 326 328 335 341 345 348 349 349 348 347 346 347 348 349 347 344 341 337 335 334 333 334 336 338 339 338 334 331 325 314 310 313 315 313 313 317 319 316 316 317 315 315 316 314 313 313
187 188 189 189 190 189 189 190 191 189 189 192 196 198 199 199 199 200 203 209 222 233 243 252 262 275 289 302 313 321 323 325 326 325 324 322 318 318 323 326 330 335 339 343 346 347 348 348 347 347 347 347 348 347 344 341 337 333 332 332 332 334 337 340 338 335 333 328 321 317 314 313 314 314 315 317 318 320 320 317 318 321 319 316 315
189 189 190 191 191 191 190 191 192 190 191 195 197 199 200 201 202 202 204 212 221 229 240 251 261 275 288 299 309 319 324 322 321 321 321 319 318 320 325 328 330 333 336 340 343 346 347 348 348 347 346 346 346 346 344 340 336 333 331 330 330 331 336 340 338 336 335 331 328 327 324 324 326 325 326 328 330 331 327 320 323 327 324 318 317
190 191 192 192 192 191 191 193 194 192 193 196 198 199 201 203 203 203 204 212 223 229 239 253 267 282 292 301 310 317 322 322 318 318 319 318 319 322 325 327 329 331 334 338 342 344 346 347 348 347 346 345 344 344 344 340 337 334 330 328 326 327 333 337 336 336 336 334 334 335 334 336 336 334 335 336 338 339 332 322 324 325 319 314 313
192 193 193 192 192 192 192 194 196 195 195 197 198 200 202 203 203 204 206 215 226 234 241 252 263 281 295 305 314 316 319 322 318 315 316 316 318 322 325 326 328 330 333 336 339 342 343 345 347 347 345 343 342 342 343 341 338 334 330 325 321 324 331 333 330 330 332 332 335 336 336 338 338 336 337 338 339 341 336 328 327 323 315 311 311
193 193 193 193 193 193 193 195 196 196 196 197 199 201 203 205 205 207 212 218 226 236 246 254 262 277 294 306 313 314 316 319 317 312 313 314 317 321 324 327 328 329 332 335 336 338 340 342 345 346 343 342 341 340 341 341 338 334 330 325 320 323 329 328 326 327 328 328 331 333 334 336 337 336 338 338 339 340 337 334 331 324 315 310 308
192 192 193 193 194 194 194 196 196 196 197 198 201 203 204 206 209 211 216 221 226 237 249 259 269 281 295 305 311 313 313 315 315 311 310 312 315 319 323 325 328 328 329 332 334 335 337 338 341 343 342 341 341 340 340 340 338 335 333 329 326 326 327 324 325 328 328 328 331 331 332 334 335 336 338 337 338 338 337 335 333 327 320 312 307
191 192 193 194 194 194 194 196 196 195 197 199 202 205 205 208 211 213 217 222 227 238 250 262 276 288 299 305 309 312 310 310 310 309 308 310 313 318 321 323 326 327 326 329 332 333 333 334 337 340 341 339 339 340 339 339 338 337 336 335 333 331 329 326 328 330 330 330 330 330 331 334 334 335 336 336 336 337 335 335 333 329 324 316 309
191 192 193 194 195 195 194 195 196 196 198 201 202 205 208 210 212 214 218 223 228 238 252 264 277 290 299 303 304 306 304 303 304 304 304 307 312 316 319 321 324 326 325 326 330 331 331 333 336 339 339 338 338 339 339 339 338 338 338 338 336 335 333 331 332 332 331 330 330 329 330 333 333 333 334 333 334 335 334 334 333 331 328 323 316
191 192 194 194 194 195 194 195 197 198 200 202 203 206 209 211 214 215 218 223 228 238 252 265 278 288 297 302 299 295 292 293 296 299 300 305 310 315 317 320 324 326 325 326 329 330 331 334 336 337 338 338 338 338 338 339 340 339 339 339 338 337 336 335 335 334 330 330 329 327 328 331 331 330 330 330 331 332 334 334 334 333 332 328 325
191 192 193 194 194 194 194 195 198 199 201 203 205 206 208 211 213 215 218 223 229 237 248 263 276 286 295 301 302 297 291 291 294 297 299 303 310 315 318 321 325 326 326 328 330 330 331 334 336 336 337 337 337 337 338 339 340 340 340 340 339 339 339 337 336 334 330 328 327 325 325 327 328 328 329 330 331 333 335 336 335 336 336 334 332
190 191 192 194 194 193 194 195 197 200 202 205 207 208 211 214 215 218 221 224 230 238 248 261 274 284 293 299 301 300 299 299 301 301 303 308 315 319 322 324 327 328 328 330 331 331 332 334 335 336 336 336 336 336 337 339 340 340 340 340 340 340 340 338 336 332 328 326 325 323 324 326 328 329 331 333 334 336 338 337 336 337 339 338 336
189 190 192 193 192 193 195 195 197 199 202 206 207 208 212 216 218 220 223 225 231 240 248 259 270 282 291 295 297 299 300 304 310 313 314 319 322 324 325 327 329 331 331 332 331 331 332 333 334 334 335 335 336 337 338 338 339 339 339 340 340 340 340 339 336 332 327 325 324 324 325 327 330 332 334 335 335 337 340 339 336 337 339 339 336
189 190 191 192 192 194 196 196 198 200 202 205 207 208 210 214 216 220 223 228 237 245 252 263 273 283 288 291 295 299 301 309 321 322 322 325 326 326 327 329 330 330 331 330 329 328 329 330 332 334 335 336 337 338 339 338 338 338 338 339 339 339 340 339 337 334 331 328 327 326 328 330 332 333 334 334 335 337 340 341 339 337 338 341 338
189 190 190 192 193 194 196 198 200 202 204 206 209 211 214 217 221 224 228 233 242 249 256 266 275 281 283 287 294 299 303 312 321 321 321 323 324 324 325 326 326 326 327 326 325 324 326 329 332 334 336 336 336 336 337 336 336 336 336 337 337 337 339 339 337 335 333 331 329 328 329 330 331 332 334 333 334 337 340 341 341 338 339 341 338
186 189 190 192 194 194 195 198 200 203 206 208 211 214 217 222 226 227 228 233 241 250 257 265 273 277 280 285 291 295 301 310 317 318 319 321 323 323 322 322 320 320 322 322 321 321 325 329 331 333 334 333 332 332 332 332 332 332 333 334 334 335 336 335 334 333 332 331 330 329 329 329 329 332 333 332 332 335 339 341 342 341 341 341 336
184 188 190 192 194 195 196 198 200 204 206 209 213 216 218 222 225 226 227 232 240 250 257 264 271 275 279 286 291 294 301 309 314 317 319 321 323 322 320 318 318 318 320 319 318 320 325 328 329 330 331 329 328 328 328 328 328 328 329 329 331 332 332 332 332 332 331 330 330 329 330 330 329 330 331 331 331 333 336 340 343 343 342 341 336
185 188 190 192 194 196 197 199 201 204 206 208 213 217 221 224 226 227 228 233 240 249 257 264 270 274 280 287 292 298 305 310 313 315 318 320 320 318 317 316 317 319 319 316 315 320 326 327 326 327 328 327 326 326 326 325 325 326 326 326 327 328 329 329 330 330 328 328 329 328 329 330 329 329 330 331 331 332 335 339 342 342 341 340 338
188 188 190 191 193 195 197 200 202 204 206 209 212 216 221 225 226 228 232 236 241 246 252 259 266 271 277 284 291 298 305 308 310 312 315 316 316 316 316 317 319 321 321 317 315 321 327 328 326 326 326 324 324 324 324 324 324 324 324 323 323 324 326 327 328 328 328 328 327 327 328 329 329 329 329 331 332 333 334 337 339 340 340 339 338
192 192 192 193 193 195 198 201 204 206 209 211 214 217 221 225 227 231 236 240 243 247 251 256 263 269 276 284 291 297 301 303 305 308 311 313 316 317 317 319 322 325 324 320 318 323 327 326 325 325 325 324 324 324 323 323 323 323 322 322 322 322 325 327 327 327 328 328 327 327 328 329 330 329 329 330 331 332 333 336 338 339 339 337 336
194 195 195 196 196 198 200 203 205 208 211 213 216 220 223 226 229 231 235 240 246 251 255 257 263 270 276 283 288 291 294 296 299 304 310 314 317 319 319 321 325 328 327 324 323 324 324 324 324 325 325 324 324 324 323 322 323 322 322 321 322 322 324 325 326 327 327 326 326 327 328 328 329 330 328 327 329 330 331 334 336 337 336 335 334
194 195 195 197 198 200 202 204 206 210 213 215 218 222 225 229 231 233 236 242 247 252 255 255 257 263 268 276 282 285 289 293 298 305 312 315 318 321 322 323 323 323 324 325 325 325 324 324 324 325 325 324 324 324 323 322 322 322 322 321 321 321 322 323 325 325 325 325 324 326 328 328 329 330 329 327 327 328 328 330 332 333 334 333 332
194 195 195 196 198 200 203 205 208 211 215 217 221 224 226 229 232 234 239 244 249 255 259 261 263 265 267 276 286 289 292 296 301 308 314 316 318 321 322 321 320 318 319 323 324 324 325 326 326 326 325 325 324 324 324 324 323 323 323 322 321 320 321 323 324 324 324 324 324 325 326 327 328 329 328 326 325 327 328 329 330 330 332 333 332
195 197 197 197 198 200 202 205 208 212 216 218 221 225 228 230 233 236 241 246 251 256 261 265 270 274 278 288 297 297 297 299 303 310 315 317 320 322 323 323 321 318 318 322 324 323 324 326 327 327 325 324 325 324 324 324 324 323 323 322 321 321 322 323 324 324 323 323 323 323 324 325 326 328 327 324 323 325 326 328 330 330 331 333 334
195 198 199 200 200 201 203 205 208 211 215 219 221 224 227 230 233 237 242 246 251 256 261 267 271 277 285 296 301 301 301 302 307 314 318 319 322 325 326 326 325 323 322 324 325 325 324 325 326 327 325 325 325 325 325 324 324 324 324 323 321 322 322 323 323 323 322 322 321 322 323 323 324 326 325 322 322 323 324 325 327 328 328 329 329
194 196 198 199 201 202 204 206 208 211 215 218 221 224 227 231 234 238 243 248 253 257 263 268 272 279 291 298 299 301 303 305 310 316 320 321 323 326 327 327 326 325 325 326 326 326 325 325 326 326 325 326 326 326 326 325 325 324 324 323 321 320 320 320 320 320 320 320 320 320 321 322 323 324 323 321 321 322 321 322 324 326 327 326 327
193 195 196 199 201 202 204 206 209 213 216 219 223 226 229 233 237 241 246 250 255 259 264 269 274 283 291 295 298 300 302 305 310 316 319 320 322 324 326 327 326 326 326 326 326 326 326 325 325 325 325 326 327 327 327 326 326 325 324 322 320 319 318 318 318 318 318 319 319 319 319 320 321 321 321 320 321 321 320 320 322 324 326 327 328
193 194 196 197 199 202 204 206 210 214 218 221 225 229 233 236 240 243 247 252 256 261 266 270 276 284 289 293 297 299 301 305 311 314 316 318 320 322 324 326 326 326 326 325 326 326 326 325 326 326 326 327 328 328 327 326 326 325 323 321 319 317 316 316 316 317 317 317 317 317 318 319 319 319 318 319 319 320 320 320 321 323 324 327 330
194 195 196 198 200 203 206 208 211 214 218 222 226 230 234 238 241 245 249 253 257 261 266 271 278 284 289 293 297 298 301 306 311 312 314 316 318 320 324 326 326 326 326 326 327 327 326 325 326 327 327 327 328 328 327 326 326 324 322 320 317 315 314 314 315 317 317 317 316 316 317 318 318 317 317 318 319 319 319 319 319 321 323 324 328
194 195 197 198 201 204 207 209 213 216 220 223 228 232 235 239 242 245 249 253 257 262 267 272 279 285 288 292 296 297 301 306 309 311 313 315 317 321 324 326 326 326 326 327 329 328 327 326 327 328 329 329 330 329 328 328 327 324 321 318 316 313 313 315 316 317 318 316 315 316 316 316 316 315 315 317 318 317 318 318 319 320 322 323 326
194 195 196 198 200 204 206 209 213 217 220 223 228 232 235 239 242 246 249 254 258 263 268 273 279 283 287 292 296 298 301 306 309 311 313 315 318 322 325 326 326 327 326 328 329 329 329 329 328 329 330 331 332 331 330 329 328 325 322 319 315 313 315 316 317 317 317 315 314 315 315 313 314 313 313 315 317 315 315 316 317 318 320 321 323
195 195 196 198 200 203 206 209 213 217 220 224 228 232 236 239 243 246 250 254 259 264 268 273 278 281 286 292 296 298 302 307 308 310 313 316 319 322 324 326 326 326 326 328 329 330 331 331 330 330 330 332 332 333 333 331 330 327 324 321 318 316 317 319 318 316 316 315 315 315 313 311 312 312 312 313 314 313 313 314 315 316 318 319 321
195 196 197 199 202 203 206 210 213 217 221 224 228 232 236 239 243 247 251 255 259 264 269 273 277 281 286 291 295 298 302 306 307 310 314 317 319 322 324 325 326 326 326 327 329 330 332 333 332 331 331 332 333 334 333 332 332 329 327 325 323 320 319 319 317 315 316 316 315 314 313 311 311 311 312 312 312 312 312 313 314 315 316 317 319
195 196 198 200 202 203 206 210 213 217 221 225 229 233 236 240 244 247 251 256 260 264 269 273 277 281 286 291 295 299 302 305 307 310 314 317 320 323 324 325 326 326 326 327 329 332 333 334 333 332 333 333 334 334 334 333 333 331 329 327 325 322 321 319 316 315 315 315 314 313 313 311 310 310 310 311 310 310 311 311 312 313 314 315 318
196 197 198 201 202 204 207 211 214 218 222 225 229 233 236 240 244 248 252 257 261 265 270 273 278 282 287 291 295 299 302 305 307 311 315 318 321 322 324 325 326 326 326 327 330 332 334 334 334 333 334 335 335 334 334 333 333 332 331 329 326 325 322 319 317 316 315 314 314 313 313 312 311 310 309 309 309 308 308 308 310 312 313 313 316
196 198 200 201 203 205 209 212 216 220 223 226 230 233 237 241 245 249 254 259 262 266 271 275 279 284 288 291 295 299 302 305 308 312 315 319 320 322 324 325 325 326 327 328 330 332 334 334 333 333 334 336 336 335 334 334 333 333 332 331 328 327 326 322 320 320 319 317 316 315 313 312 311 309 308 308 308 306 307 307 308 310 311 311 312
196 198 200 202 204 206 209 212 216 220 223 227 231 235 238 243 247 251 255 260 264 268 273 277 282 286 288 291 295 300 303 306 309 313 316 319 321 322 323 324 325 326 327 328 330 332 333 332 332 333 334 335 335 334 334 334 334 333 333 333 332 331 330 328 325 324 324 321 318 315 313 312 310 308 307 307 306 305 305 306 307 307 308 309 310